Niagara Falls, NY

8:23 AM EST on February 22, 2018 (GMT -0500)
Niagara Falls International

Weather History for KIAG - May, 2014

Change the Weather History Date:

Wednesday, May 28, 2014

  Actual Average Record
Temperature  
Mean Temperature 60 °F -  
Max Temperature 64 °F 66 °F 91 °F (2016)
Min Temperature 55 °F 46 °F 37 °F (2008)
Degree Days  
Heating Degree Days 6    
Growing Degree Days 10 (Base 50)    
Moisture  
Dew Point 52 °F    
Average Humidity 73    
Maximum Humidity 93    
Minimum Humidity 59    
Precipitation  
Precipitation 0.00 in - - ()
Sea Level Pressure  
Sea Level Pressure 30.02 in    
Wind  
Wind Speed 8 mph (ENE)    
Max Wind Speed 17 mph    
Max Gust Speed -    
Visibility 10 miles    
Events      
Averages and records for this station are not official NWS values.
T = Trace of Precipitation, MM = Missing Value Source: NWS Daily Summary

Daily Weather History Graph

Daily Weather History Graph

Search for Another Location

Airport or City:

Trip Planner

Search our weather history database for the weather conditions in past years. The results will help you decide how hot, cold, wet, or windy it might be!

Date:

Astronomy

May. 28, 2014 Rise Set
Actual Time 5:41 AM EDT 8:45 PM EDT
Civil Twilight 5:07 AM EDT 9:19 PM EDT
Nautical Twilight 4:23 AM EDT 10:03 PM EDT
Astronomical Twilight 3:31 AM EDT 10:55 PM EDT
Moon 5:48 AM EDT (5/28) 8:40 PM EDT (5/28)
Length of Visible Light 16h 12m
Length of Day
15h 04m
Waning Crescent, 0% of the Moon is Illuminated
May 28
Waning Crescent
May 28
New
Jun 5
First Quarter
Jun 13
Full
Jun 19
Last Quarter

Hourly Weather History & Observations

Time (EDT) Temp. Dew Point Humidity Pressure Visibility Wind Dir Wind Speed Gust Speed Precip Events Conditions
12:53 AM 61.0 °F 59.0 °F 93% 29.84 in 4.0 mi Calm Calm - N/A   Mostly Cloudy
2:53 AM 62.1 °F 55.0 °F 78% 29.85 in 10.0 mi NNW 6.9 mph - N/A   Clear
3:53 AM 59.0 °F 55.0 °F 87% 29.86 in 10.0 mi North 4.6 mph - N/A   Clear
4:53 AM 57.0 °F 54.0 °F 89% 29.89 in 8.0 mi East 5.8 mph - N/A   Clear
5:53 AM 57.9 °F 55.0 °F 90% 29.92 in 7.0 mi NE 9.2 mph - N/A   Clear
6:09 AM 57.9 °F 54.0 °F 87% 29.93 in 8.0 mi ENE 12.7 mph - N/A   Mostly Cloudy
6:53 AM 57.9 °F 54.0 °F 87% 29.95 in 10.0 mi East 8.1 mph - N/A   Overcast
7:02 AM 57.9 °F 54.0 °F 87% 29.95 in 10.0 mi East 8.1 mph - N/A   Mostly Cloudy
7:53 AM 59.0 °F 53.1 °F 81% 29.96 in 10.0 mi East 9.2 mph - N/A   Mostly Cloudy
8:29 AM 60.1 °F 52.0 °F 75% 29.97 in 10.0 mi East 10.4 mph - N/A   Mostly Cloudy
8:53 AM 60.1 °F 52.0 °F 75% 29.97 in 10.0 mi East 9.2 mph - N/A   Mostly Cloudy
9:53 AM 64.9 °F 53.1 °F 65% 29.99 in 10.0 mi NE 11.5 mph - N/A   Mostly Cloudy
10:32 AM 64.9 °F 53.1 °F 65% 30.00 in 10.0 mi ENE 4.6 mph - N/A   Mostly Cloudy
10:53 AM 64.0 °F 53.1 °F 67% 30.01 in 10.0 mi ENE 5.8 mph - N/A   Mostly Cloudy
11:53 AM 63.0 °F 53.1 °F 70% 30.03 in 10.0 mi NE 13.8 mph - N/A   Overcast
1:35 PM 64.0 °F 53.1 °F 67% 30.05 in 10.0 mi NE 12.7 mph - N/A   Mostly Cloudy
1:53 PM 64.4 °F 53.6 °F 68% 30.05 in 10.0 mi ENE 11.5 mph - N/A   Mostly Cloudy
2:48 PM 64.4 °F 51.8 °F 64% 30.06 in 10.0 mi East 11.5 mph - N/A   Mostly Cloudy
2:53 PM 64.9 °F 52.0 °F 63% 30.06 in 10.0 mi East 10.4 mph - N/A   Mostly Cloudy
3:53 PM 63.0 °F 51.1 °F 65% 30.07 in 10.0 mi ENE 12.7 mph - N/A   Mostly Cloudy
4:53 PM 63.0 °F 50.0 °F 63% 30.07 in 10.0 mi NE 17.3 mph - N/A   Mostly Cloudy
5:53 PM 62.6 °F 48.2 °F 59% 30.06 in 10.0 mi ENE 12.7 mph - N/A   Mostly Cloudy
6:53 PM 60.8 °F 48.2 °F 63% 30.07 in 10.0 mi ENE 13.8 mph - N/A   Mostly Cloudy
7:10 PM 60.1 °F 48.0 °F 64% 30.08 in 10.0 mi ENE 12.7 mph - N/A   Mostly Cloudy
7:53 PM 59.0 °F 46.9 °F 64% 30.10 in 10.0 mi ENE 10.4 mph - N/A   Mostly Cloudy
8:17 PM 59.0 °F 48.0 °F 67% 30.10 in 10.0 mi ENE 11.5 mph - N/A   Mostly Cloudy
8:53 PM 57.9 °F 48.0 °F 70% 30.12 in 10.0 mi ENE 9.2 mph - N/A   Mostly Cloudy
9:53 PM 57.0 °F 48.0 °F 72% 30.13 in 10.0 mi East 11.5 mph - N/A   Overcast
10:53 PM 55.4 °F 48.2 °F 77% 30.14 in 10.0 mi East 9.2 mph - N/A   Overcast
11:41 PM 55.9 °F 48.0 °F 75% 30.14 in 10.0 mi East 5.8 mph - N/A   Overcast
11:53 PM 55.9 °F 48.0 °F 75% 30.14 in 10.0 mi East 8.1 mph - N/A   Overcast